Wind_Speed
14 14 14 11 7 5 4 3 2 5 4 2 4 3 4 3 2 1 1 1 1 5 5 3 2 3 5 5 4 2 1 4 3 5 0 3 3 4 4 4 4 1 3 7
14 14 14 13 11 7 4 3 2 6 4 3 1 1 2 2 4 4 3 2 0 1 1 2 1 1 2 4 2 3 3 1 3 5 3 3 3 4 3 4 3 6 4 6
11 13 13 13 11 9 5 4 3 4 4 5 6 4 3 3 3 3 2 2 3 2 1 1 2 3 1 4 3 3 3 2 5 5 3 4 3 4 5 5 3 3 8 10
10 11 11 11 10 8 6 3 2 2 3 3 3 3 4 2 3 2 5 2 5 6 4 2 3 2 2 1 4 3 3 4 4 7 10 5 9 8 9 11 6 6 6 8
10 10 10 10 11 8 4 1 3 2 2 1 2 1 6 8 3 7 4 4 4 6 6 8 8 7 5 5 3 6 2 3 1 5 3 2 6 10 14 17 15 14 21 26
7 9 11 11 10 8 2 2 0 1 3 2 2 4 5 8 8 9 6 11 4 4 9 10 4 9 3 7 8 7 6 3 2 5 4 7 8 9 13 5 5 12 10 13
6 7 8 10 10 8 5 2 1 2 2 4 5 2 4 5 8 2 3 9 6 3 4 2 1 1 3 5 9 8 6 5 3 4 6 2 5 2 6 10 6 14 10 9
7 6 6 7 9 8 6 6 2 2 2 5 4 7 5 3 5 4 5 9 6 7 3 2 2 3 3 1 1 4 2 4 2 2 2 8 6 3 5 6 6 12 15 15
9 8 6 6 6 7 6 6 5 2 2 5 6 4 7 4 3 3 4 4 8 7 3 2 5 5 5 3 1 4 5 3 4 2 2 5 3 1 4 3 5 5 10 11
11 10 9 8 7 8 9 7 8 4 5 5 6 5 4 6 4 2 2 5 6 9 3 2 4 5 4 5 6 5 4 3 10 7 4 8 9 8 4 2 5 7 8 8
10 11 13 14 13 10 10 11 10 8 5 15 17 12 11 7 7 4 7 3 4 3 4 4 4 4 5 2 6 8 9 8 5 5 5 10 12 7 6 3 4 8 8 14
12 13 15 16 16 15 14 15 14 15 14 14 21 26 23 21 20 9 13 4 6 11 2 2 2 3 2 3 3 2 3 7 7 11 8 3 14 6 10 16 18 15 14 23
19 18 17 17 18 17 18 18 17 18 17 24 23 21 19 23 31 30 13 11 15 8 9 7 3 4 4 5 6 6 5 11 4 2 8 20 22 19 21 18 14 24 24 25
24 22 20 20 21 21 22 23 21 18 12 6 9 11 13 17 16 16 30 28 13 12 10 7 3 3 9 3 4 4 5 8 4 6 7 18 15 12 17 27 22 25 32 31
20 24 23 22 21 22 23 23 24 23 14 6 13 29 41 35 30 25 22 24 32 17 6 5 3 5 4 7 3 10 12 9 8 14 16 19 25 28 25 26 30 27 25 26
16 16 17 20 23 25 23 10 19 25 25 8 3 9 15 17 16 19 20 32 25 20 10 8 10 15 7 4 5 6 22 29 34 30 26 25 28 28 25 22 25 21 14 14
15 15 16 17 16 16 13 7 4 8 12 6 6 6 5 16 14 16 21 21 18 15 8 10 10 10 14 3 15 9 12 16 23 30 34 24 19 14 15 10 7 7 9 12
15 14 15 15 14 16 21 21 23 19 12 7 3 4 4 9 6 4 7 8 15 10 7 4 5 6 8 6 4 9 19 23 19 12 8 7 2 1 6 6 6 10 14 14
15 16 16 15 12 9 8 8 11 15 17 5 4 2 4 4 4 4 6 7 3 5 4 5 9 4 7 5 12 8 3 2 5 5 3 7 8 8 8 13 12 14 20 21
16 14 6 4 3 8 12 7 6 8 9 9 5 5 3 5 7 4 4 7 3 3 5 7 4 3 10 7 6 3 5 3 9 11 10 9 11 12 14 13 12 16 21 25
14 3 5 6 9 10 5 5 6 6 4 6 6 12 8 10 4 4 8 2 3 3 4 6 3 4 1 13 20 23 19 15 12 11 12 14 14 15 19 23 25 27 28 31
11 11 18 14 5 5 4 3 3 4 3 3 4 6 9 7 11 9 7 3 5 5 8 3 2 1 18 23 18 14 14 13 11 13 15 19 17 16 23 29 32 33 33 35
14 6 6 6 7 6 5 4 4 2 2 2 5 3 7 6 12 7 3 5 3 8 3 2 1 7 17 13 9 8 13 12 16 20 21 22 25 26 30 34 34 35 36 35
5 5 5 4 3 4 5 5 4 6 7 4 5 1 1 5 5 4 4 3 2 1 1 1 2 12 9 12 13 15 18 20 24 27 24 25 27 28 31 33 34 34 34 34
5 6 5 5 10 8 6 15 11 14 8 7 2 2 2 1 2 1 3 4 4 2 1 2 10 9 8 12 18 18 21 26 27 26 28 29 30 31 34 36 36 37 38 39
6 7 5 6 4 9 12 13 20 15 13 4 2 2 1 4 2 2 6 5 5 5 4 12 20 16 22 24 19 23 29 29 31 31 32 33 34 36 38 40 40 41 41 41
5 7 13 16 11 9 10 15 23 14 5 3 4 4 9 1 2 3 4 5 4 19 25 30 31 32 35 39 37 35 35 34 33 33 34 36 38 39 39 41 40 38 39 40
Wind_Direction
29 27 25 18 6 352 354 17 28 0 346 39 64 103 154 126 153 175 329 136 122 178 171 174 185 211 213 179 167 114 27 141 254 223 256 189 181 197 154 123 255 162 153 272
12 16 21 19 14 1 354 6 16 16 359 107 54 164 104 150 146 187 167 200 167 63 160 357 188 225 23 166 127 155 184 330 343 332 0 4 244 201 145 112 109 205 143 263
15 5 7 13 14 8 17 352 4 9 44 82 126 144 172 161 185 165 164 153 130 115 136 150 211 195 199 183 162 137 136 177 206 212 209 125 208 202 187 157 142 195 230 282
2 8 1 360 4 5 357 50 51 28 305 343 103 114 149 130 199 220 188 185 200 170 171 190 225 149 160 185 178 140 139 238 212 256 260 227 236 219 193 208 188 193 275 231
340 350 358 359 354 356 327 352 158 120 108 87 91 265 218 181 174 160 240 231 196 193 189 192 195 163 194 196 174 168 157 245 353 281 299 170 265 238 224 229 231 248 259 275
351 348 350 353 357 355 351 10 125 175 168 142 106 237 214 213 170 206 198 199 143 204 240 235 252 217 233 190 159 183 163 168 50 269 357 319 289 226 193 195 201 212 224 237
348 350 349 348 354 5 360 346 299 270 250 170 208 225 218 228 216 209 218 195 162 188 157 134 251 263 263 203 206 174 147 145 160 275 343 277 260 230 181 194 209 213 259 268
332 339 346 350 351 351 356 352 320 264 271 236 259 231 216 243 243 245 232 207 205 174 153 85 8 336 330 235 354 214 159 135 253 232 239 297 269 181 155 174 281 214 230 257
312 320 329 335 340 335 342 335 341 302 265 251 241 189 200 193 203 305 226 214 192 182 113 140 202 214 213 232 229 47 117 76 153 142 210 249 264 134 146 117 280 196 204 249
283 298 314 318 322 328 331 327 334 318 281 276 229 221 210 180 180 184 188 180 183 186 129 199 207 241 170 191 183 171 146 191 217 220 251 280 251 222 133 175 240 202 225 257
298 295 297 304 303 307 315 315 321 321 268 275 267 253 237 226 194 167 161 120 206 115 176 174 221 211 227 196 169 175 170 164 192 173 215 262 189 118 186 222 5 341 338 322
276 279 282 287 288 292 302 301 305 306 296 279 283 278 267 250 253 236 193 244 177 200 130 227 146 218 227 196 241 18 232 194 180 188 209 231 193 214 242 291 297 304 314 316
265 266 271 276 284 281 282 286 290 296 297 302 280 279 273 259 247 244 233 226 229 214 218 182 198 226 143 192 231 209 242 190 220 134 214 242 255 260 280 289 306 314 317 316
268 270 268 271 271 277 279 281 282 282 284 263 274 272 273 267 252 241 235 234 240 241 227 219 208 196 196 229 264 209 209 153 222 264 279 289 283 281 308 309 308 310 312 306
267 267 272 271 271 269 263 265 272 275 251 277 279 284 280 269 255 252 252 242 238 225 206 205 224 218 238 236 236 243 211 224 242 264 286 281 285 294 302 309 313 306 302 305
289 289 286 274 266 269 270 291 274 254 242 267 277 262 268 262 247 245 245 231 230 217 205 216 228 228 209 250 245 224 238 244 247 260 278 284 294 302 308 302 302 296 295 300
293 284 284 284 279 269 242 242 218 176 210 247 271 260 251 250 258 260 249 233 226 210 214 218 211 193 198 236 252 242 255 270 268 278 295 297 301 306 306 301 283 288 301 312
318 304 278 273 279 273 267 270 250 234 261 238 253 255 275 208 204 221 205 211 201 225 232 229 183 183 206 242 256 252 265 272 283 294 307 328 305 281 55 44 358 325 321 325
298 300 296 296 269 255 276 271 249 253 247 261 262 280 257 196 211 200 197 206 223 227 235 212 177 181 223 221 244 274 312 319 303 321 55 94 66 28 1 347 336 325 313 305
305 301 291 267 246 276 276 251 224 215 215 224 240 224 268 198 196 218 217 205 229 228 222 181 224 246 263 245 245 269 27 27 134 92 44 7 2 345 329 321 323 319 315 312
317 267 241 259 288 294 250 233 215 204 222 215 234 227 240 238 201 219 218 221 206 221 230 193 212 244 60 123 113 106 96 76 47 15 348 326 320 321 314 305 299 296 294 297
290 285 292 291 241 240 245 258 287 214 242 225 237 252 227 225 213 209 212 226 191 232 152 212 229 255 148 132 122 89 41 0 346 339 321 307 293 307 316 312 306 303 303 297
294 262 227 199 203 228 211 234 289 293 239 303 310 308 309 223 217 231 228 226 229 135 209 215 121 141 159 160 185 272 302 316 332 322 313 307 302 294 296 305 303 303 303 301
251 233 247 212 234 232 203 188 199 227 229 252 328 152 342 326 315 339 289 336 262 225 174 123 92 150 200 244 263 262 288 304 307 308 308 307 303 298 297 298 302 304 301 300
266 255 249 224 237 251 255 233 242 242 251 228 214 243 295 253 242 235 314 334 313 339 69 186 222 263 258 280 281 281 295 302 307 309 306 305 306 305 304 305 308 306 302 303
235 241 273 277 293 274 268 270 260 274 266 202 79 104 354 253 247 192 214 157 215 250 217 281 309 284 287 294 291 294 310 312 310 308 307 306 306 305 306 306 304 304 306 305
239 245 239 246 266 276 277 283 274 283 253 224 152 225 224 124 37 279 195 206 226 269 286 292 294 297 302 307 310 308 310 309 306 304 303 305 306 307 309 309 313 312 311 309
Height
1553 1552 1550 1548 1545 1544 1543 1541 1542 1541 1540 1542 1548 1555 1554 1555 1557 1558 1559 1559 1559 1562 1564 1565 1574 1566 1569 1566 1566 1567 1569 1577 1580 1566 1568 1568 1570 1571 1574 1593 1594 1610 1612 1566
1555 1552 1550 1549 1547 1545 1544 1542 1541 1542 1540 1552 1555 1553 1553 1554 1555 1556 1558 1559 1560 1560 1561 1562 1564 1565 1565 1565 1566 1568 1569 1577 1585 1565 1570 1569 1569 1569 1570 1576 1582 1595 1590 1551
1555 1554 1551 1549 1547 1546 1545 1546 1547 1543 1541 1543 1547 1551 1552 1554 1553 1554 1555 1556 1557 1558 1560 1561 1561 1563 1565 1565 1566 1567 1568 1574 1570 1567 1554 1563 1566 1565 1566 1568 1592 1580 1564 1541
1556 1554 1552 1550 1547 1546 1546 1544 1548 1549 1553 1548 1546 1548 1552 1554 1555 1555 1554 1555 1555 1556 1561 1562 1562 1563 1565 1566 1566 1567 1568 1572 1571 1563 1559 1560 1556 1556 1560 1563 1560 1562 1534 1543
1556 1555 1552 1550 1549 1546 1547 1545 1545 1547 1548 1550 1551 1551 1551 1549 1550 1553 1555 1555 1551 1554 1555 1552 1557 1558 1560 1559 1565 1566 1567 1567 1568 1562 1552 1553 1553 1548 1548 1547 1546 1546 1535 1527
1554 1554 1553 1551 1549 1548 1545 1545 1546 1543 1547 1549 1552 1550 1546 1545 1545 1545 1544 1547 1551 1554 1551 1550 1551 1552 1552 1552 1557 1564 1568 1569 1568 1565 1556 1554 1542 1526 1532 1533 1531 1528 1535 1509
1555 1552 1551 1550 1549 1548 1548 1546 1547 1547 1546 1546 1547 1544 1545 1545 1544 1543 1545 1546 1546 1546 1548 1550 1551 1551 1552 1553 1554 1555 1564 1567 1569 1569 1559 1551 1513 1512 1514 1517 1516 1516 1510 1505
1556 1553 1550 1549 1549 1548 1547 1548 1546 1546 1547 1544 1540 1542 1543 1544 1545 1545 1544 1543 1544 1546 1547 1549 1551 1556 1554 1552 1555 1557 1559 1563 1566 1573 1578 1539 1503 1512 1515 1516 1507 1502 1504 1501
1555 1554 1551 1549 1549 1549 1546 1547 1547 1545 1545 1541 1539 1538 1538 1542 1543 1544 1542 1543 1544 1545 1547 1550 1547 1545 1541 1552 1555 1554 1557 1560 1566 1572 1569 1546 1508 1509 1509 1510 1515 1497 1499 1498
1551 1553 1552 1549 1548 1548 1547 1546 1545 1545 1543 1538 1538 1539 1538 1536 1538 1539 1540 1540 1542 1542 1548 1552 1551 1544 1536 1538 1547 1557 1559 1560 1557 1559 1557 1538 1507 1507 1508 1515 1508 1494 1494 1494
1549 1549 1550 1549 1548 1547 1547 1546 1544 1545 1540 1534 1534 1533 1534 1535 1532 1536 1536 1539 1538 1542 1544 1545 1542 1544 1534 1531 1528 1535 1538 1548 1552 1550 1553 1539 1501 1507 1510 1498 1495 1496 1496 1496
1545 1546 1548 1547 1546 1546 1544 1543 1543 1541 1542 1535 1530 1527 1527 1527 1531 1528 1526 1528 1526 1527 1533 1535 1533 1534 1533 1527 1528 1526 1527 1513 1524 1523 1510 1496 1496 1494 1496 1495 1493 1494 1493 1491
1541 1541 1542 1541 1542 1541 1542 1540 1539 1537 1533 1528 1523 1519 1517 1517 1517 1523 1523 1517 1521 1520 1520 1521 1523 1526 1523 1524 1520 1512 1509 1505 1508 1506 1489 1490 1492 1492 1491 1491 1490 1489 1487 1484
1535 1535 1536 1536 1536 1536 1535 1536 1537 1537 1534 1526 1511 1510 1513 1513 1511 1511 1514 1513 1513 1515 1517 1517 1518 1517 1511 1512 1506 1506 1500 1501 1498 1494 1487 1486 1485 1486 1486 1485 1484 1482 1479 1476
1529 1529 1530 1531 1530 1530 1529 1529 1530 1532 1534 1522 1513 1507 1503 1506 1508 1506 1508 1509 1509 1509 1511 1511 1510 1507 1509 1502 1501 1490 1492 1490 1489 1477 1483 1483 1479 1480 1480 1478 1477 1474 1470 1467
1526 1524 1524 1524 1525 1525 1524 1522 1522 1523 1524 1520 1510 1500 1495 1495 1495 1496 1495 1499 1500 1502 1500 1499 1495 1497 1503 1498 1486 1475 1478 1478 1478 1474 1477 1477 1475 1474 1473 1470 1469 1467 1466 1463
1522 1520 1520 1519 1520 1520 1521 1521 1517 1518 1520 1518 1505 1493 1486 1488 1490 1490 1491 1492 1494 1492 1490 1486 1486 1487 1492 1484 1470 1473 1473 1474 1474 1474 1471 1468 1469 1467 1466 1465 1465 1464 1462 1461
1520 1518 1517 1515 1515 1513 1512 1515 1514 1512 1513 1509 1501 1488 1487 1485 1483 1486 1485 1487 1487 1486 1483 1479 1478 1481 1479 1471 1462 1464 1466 1466 1467 1467 1466 1465 1465 1465 1464 1463 1462 1461 1460 1459
1517 1516 1514 1512 1510 1509 1506 1506 1505 1506 1512 1503 1498 1492 1489 1485 1483 1482 1483 1483 1482 1479 1475 1473 1476 1471 1465 1457 1458 1460 1461 1462 1464 1464 1465 1464 1464 1464 1463 1462 1460 1459 1458 1457
1515 1513 1513 1510 1508 1506 1507 1502 1503 1500 1498 1496 1490 1489 1488 1486 1484 1481 1484 1478 1476 1471 1468 1469 1465 1458 1455 1456 1457 1458 1458 1459 1461 1463 1464 1464 1462 1462 1460 1459 1457 1455 1453 1450
1512 1511 1508 1508 1507 1506 1504 1499 1496 1493 1489 1487 1483 1481 1482 1482 1480 1478 1476 1469 1467 1466 1461 1461 1459 1455 1455 1455 1455 1457 1460 1462 1463 1463 1462 1462 1459 1456 1455 1453 1451 1448 1444 1441
1512 1510 1506 1504 1505 1504 1501 1495 1490 1486 1485 1481 1481 1475 1476 1476 1475 1473 1467 1463 1461 1455 1457 1456 1457 1454 1456 1456 1457 1458 1460 1460 1459 1458 1456 1457 1455 1452 1450 1447 1443 1441 1436 1432
1507 1507 1502 1500 1497 1497 1492 1503 1495 1492 1479 1479 1478 1475 1474 1472 1470 1466 1462 1457 1451 1452 1451 1447 1454 1455 1458 1459 1459 1457 1456 1456 1455 1455 1453 1452 1448 1446 1445 1441 1435 1432 1428 1424
1505 1500 1497 1490 1493 1489 1485 1482 1481 1478 1476 1475 1474 1475 1477 1475 1471 1462 1455 1454 1452 1448 1451 1454 1455 1458 1457 1456 1453 1452 1452 1452 1451 1449 1446 1444 1441 1438 1435 1432 1427 1423 1419 1415
1501 1495 1487 1486 1479 1478 1476 1477 1476 1472 1472 1472 1473 1475 1476 1474 1473 1470 1467 1462 1460 1454 1450 1451 1448 1448 1449 1450 1449 1448 1448 1446 1443 1441 1438 1435 1432 1429 1424 1421 1417 1412 1408 1404
1497 1491 1486 1482 1483 1478 1477 1477 1474 1473 1472 1471 1473 1475 1477 1472 1469 1469 1461 1467 1465 1454 1447 1444 1444 1444 1444 1443 1442 1442 1439 1437 1433 1430 1427 1424 1421 1418 1413 1408 1405 1401 1397 1393
1489 1484 1480 1479 1478 1475 1474 1475 1473 1472 1473 1472 1471 1472 1472 1470 1477 1473 1465 1460 1446 1440 1439 1440 1439 1438 1437 1437 1435 1433 1430 1427 1424 1421 1418 1414 1410 1406 1403 1397 1393 1390 1385 1381